Simultaneous Nadir Overpasses (SNOs) Predictions

Prediction of SNOs between METOP-A and TERRA Satellite Orbit:

Table of predicted SNOs for the next 14.0 days since TLE Epoch: 1/11/2013
Index Date (METOP-A) Time (METOP-A) Lat,Lon (METOP-A) SZA (METOP-A ) Date (TERRA) Time (TERRA) Lat,Lon (TERRA) SZA (TERRA ) Distance(km) Time Diff (sec)
1 01/11/2013 23:40:17 81.34,-127.25 105.46 01/11/2013 23:40:30 81.34,-127.15 105.48 1.80 13
2 01/12/2013 00:30:56 -81.35, 40.58 74.49 01/12/2013 00:29:56 -81.36, 40.77 74.49 3.31 60
3 01/14/2013 19:14:36 81.35, -60.53 104.99 01/14/2013 19:14:45 81.36, -60.39 105.01 2.71 9
4 01/14/2013 20:05:15 -81.35, 107.33 74.96 01/14/2013 20:04:12 -81.35, 107.17 75.01 2.68 63
5 01/17/2013 14:48:55 81.35, 5.74 104.41 01/17/2013 14:49:01 81.35, 5.87 104.43 2.28 6
6 01/17/2013 15:39:34 -81.35, 173.65 75.54 01/17/2013 15:38:28 -81.35, 173.46 75.59 3.29 66
7 01/20/2013 10:23:11 81.35, 72.36 103.82 01/20/2013 10:23:15 81.35, 72.40 103.83 0.91 4
8 01/20/2013 11:13:51 -81.35,-120.08 76.17 01/20/2013 11:12:42 -81.35,-119.99 76.19 1.48 69
9 01/23/2013 05:57:27 81.35, 138.93 103.18 01/23/2013 05:57:30 81.35, 138.82 103.17 1.93 3




NCC Satellite Simultaneous Nadir Overpasses (SNOs) Prediction Service
